Location: Saoura-Ambil�
(14.8744°N, 3.1364°W)
Time: 15:26:29
(UTC+00:00)

Daily predictions for brighter satellites

Satellite Brightness Start Highest point End
(mag) Time Altitude Azimuth Time Altitude Azimuth Time Altitude Azimuth
ARIANE 44L R/B 4.3 17:58:01 10° SW 18:01:06 37° SSE 18:12:29 10° E
CORIOLIS 4.1 17:58:17 10° SSE 18:03:38 74° ENE 18:09:00 10° N
Cosmos 2279 Rocket 4.4 17:58:25 10° S 18:04:37 72° W 18:10:47 10° N
Cosmos 1151 Rocket 4.1 18:00:30 10° SSW 18:04:38 48° W 18:08:48 10° N
AQUARIUS 4.1 18:00:21 10° SSE 18:04:50 79° ENE 18:09:18 10° N
Cosmos 1697 Rocket 2.7 18:00:26 10° NNW 18:06:02 77° ENE 18:11:38 10° SSE
Aureole 3 Rocket 3.9 18:07:16 10° SE 18:09:54 21° E 18:13:00 10° NE
SMAP 3.4 18:05:37 10° S 18:10:14 71° WSW 18:14:52 10° NNW
COSMO-SKYMED 1 2.7 18:06:42 10° N 18:11:02 79° WNW 18:15:22 10° SSW
Cosmos 1980 Rocket 2.7 18:06:18 10° N 18:11:24 35° ENE 18:16:27 10° SE
CZ-4C R/B 4.2 18:06:20 10° NNE 18:12:18 22° ENE 18:18:31 10° ESE
ATLAS 5 CENTAUR R/B 2.7 17:54:41 10° WSW 18:14:09 82° SSE 18:18:41 11° E
Cosmos 1898 Rocket 4.2 18:10:27 10° NNW 18:15:31 58° WSW 18:20:35 10° S
Cosmos 1633 Rocket 3.4 18:11:39 10° NNE 18:15:50 44° E 18:20:01 10° SSE
Cosmos 2369 3.7 18:12:45 10° N 18:18:22 59° ENE 18:23:57 10° SSE
ARGOS 3.8 18:14:53 10° SE 18:19:36 31° ENE 18:24:18 10° NNE
Delta 2 Rocket 3.5 18:16:27 10° WSW 18:21:11 78° NW 18:24:53 13° NE
MOS 1-B 4.4 18:15:36 10° SSE 18:21:15 59° ENE 18:26:55 10° N
CZ-4B DEB 4.3 18:17:50 10° SSE 18:23:23 84° WSW 18:28:53 10° NNW
CZ-4C R/B 2.8 18:20:49 10° NNE 18:24:11 71° ESE 18:27:37 10° S
Okean O Rocket 2.3 18:22:04 10° SE 18:25:59 32° ENE 18:29:55 10° NNE
Meteor 1-5 Rocket 4.3 18:20:27 10° N 18:26:16 63° E 18:31:54 10° SSE
H-2A R/B 2.0 18:27:06 10° SSE 18:32:24 86° ENE 18:37:33 10° N
GPS 2-12 Rocket1 2.9 18:28:21 10° WSW 18:32:52 83° SSE 18:35:59 19° ENE
Landsat 5 4.0 18:29:35 10° N 18:33:25 54° WNW 18:37:10 10° SSW
Meteor 1-14 Rocket 4.4 18:30:19 10° N 18:36:15 87° W 18:42:15 10° S
Cosmos 1544 3.9 18:35:27 15° NNE 18:37:47 27° E 18:40:56 10° SE
USA 32 3.9 18:34:56 10° S 18:40:06 70° E 18:45:18 10° N
Cosmos 1933 Rocket 4.5 18:38:46 17° NE 18:41:08 26° E 18:44:44 10° SE
Cosmos 2278 3.9 18:36:09 10° N 18:41:37 49° ENE 18:47:03 10° SSE
Cosmos 1666 Rocket 4.3 18:39:11 10° NNW 18:43:28 54° W 18:47:41 10° S
Cosmos 1470 Rocket 3.6 18:42:36 10° N 18:47:00 61° E 18:51:25 10° SSE
Meteor 1-27 Rocket 3.7 18:42:02 10° S 18:47:37 82° W 18:53:08 10° N
SWIFT 2.2 18:43:24 10° WNW 18:47:38 83° NNE 18:49:55 26° E
DMSP B5D1-3 4.4 18:45:52 10° NNE 18:50:58 81° ESE 18:56:03 10° S
USA 234 4.2 18:49:50 22° ENE 18:51:04 24° NE 18:56:03 10° N
CZ-3C R/B 3.7 18:49:15 10° S 18:52:04 16° SE 18:54:42 14° ESE
CZ-4B R/B 3.2 18:47:01 10° SSE 18:52:32 88° WSW 18:57:57 10° NNW
SJ-11-01 4.2 18:49:12 10° SSE 18:53:56 83° ENE 18:58:40 10° N
deb Chang Zheng 4 3.7 18:53:51 10° S 18:58:07 76° WSW 19:02:25 10° NNW
IRAS Rocket 4.3 18:57:26 10° NNE 19:02:57 82° WNW 19:08:31 10° SSW
Cosmos 1833 4.2 18:57:43 10° SSW 19:03:18 79° WNW 19:07:55 16° NNE
Cosmos 2228 Rocket 3.0 19:05:33 10° S 19:09:55 84° W 19:12:34 24° N
Meteosat 1 Rocket2 4.1 19:07:22 10° W 19:10:52 26° NNW 19:11:16 25° N
BREEZE-M DEB (TANK) 2.3 19:09:31 10° SW 19:11:44 75° WNW 19:11:44 75° WNW
H-2A R/B 2.1 19:09:34 27° N 19:12:02 87° WNW 19:16:27 10° SSW
Aurora 2 Rocket 3.3 19:08:34 10° WNW 19:13:46 73° NNE 19:16:33 38° E
Cosmos 1655 Rocket 4.1 19:07:36 10° N 19:13:57 79° W 19:20:15 10° S
GPS 2-15 Rocket1 3.0 19:12:46 10° WNW 19:17:23 65° N 19:17:39 64° NNE
USA 276 4.0 19:15:57 10° WNW 19:18:44 30° SW 19:19:56 22° SSW
SL-24 R/B - RUBIN 2 4.1 19:15:00 10° NNW 19:19:13 57° WSW 19:23:35 10° S
DNEPR-1 R/B 3.7 19:15:31 10° SSW 19:21:01 85° ESE 19:21:53 61° NNE
CZ-4 R/B 2.0 19:17:48 10° SSE 19:20:47 45° SSE 19:20:47 45° SSE
BREEZE-M DEB (TANK) 4.1 19:15:57 10° NNW 19:21:46 36° N 19:21:46 36° N
SL-27 R/B 3.7 19:23:59 10° SW 19:27:11 37° WNW 19:27:19 37° WNW
SL-08 RB Rocket 4.4 19:23:59 10° S 19:28:32 54° W 19:33:04 10° NNW
Cosmos 1553 Rocket 3.8 19:25:36 10° S 19:31:51 68° E 19:32:48 59° NE
Gbstr 26 Del rocket 4.2 19:31:48 10° SW 19:38:06 54° NW 19:39:15 46° NNW
YAOGAN 1 3.0 19:34:57 10° S 19:39:12 58° WSW 19:39:20 57° W
Meteor 1-18 Rocket 4.2 19:37:08 10° S 19:42:59 90° ESE 19:43:22 79° N
CZ-4C R/B 3.5 19:52:52 10° NNW 20:01:09 66° WSW 20:09:46 10° SSE
VEP-3 3.2 19:59:31 10° WSW 20:05:09 82° NNW 20:05:55 74° NE
Hubble Space Telescope 3.8 20:04:37 10° SSW 20:04:42 10° SSW 20:04:42 10° SSW
